TimeCDT,TemperatureF,Dew PointF,Humidity,Sea Level PressureIn,VisibilityMPH,Wind Direction,Wind SpeedMPH,Gust SpeedMPH,PrecipitationIn,Events,Conditions,WindDirDegrees,DateUTC
12:53 AM,66.9,66.9,100,30.09,7.0,Calm,Calm,-,N/A,,Clear,0,2012-04-30 05:53:00
1:29 AM,66.2,66.2,100,30.09,7.0,SSE,3.5,-,N/A,,Mostly Cloudy,150,2012-04-30 06:29:00
1:53 AM,68.0,66.9,96,30.06,7.0,SSE,3.5,-,N/A,,Overcast,160,2012-04-30 06:53:00
2:15 AM,68.0,68.0,100,30.07,7.0,Calm,Calm,-,N/A,,Overcast,0,2012-04-30 07:15:00
2:53 AM,68.0,68.0,100,30.04,6.0,Calm,Calm,-,N/A,,Overcast,0,2012-04-30 07:53:00
3:01 AM,69.8,68.0,94,30.06,6.0,Calm,Calm,-,N/A,,Overcast,0,2012-04-30 08:01:00
3:42 AM,68.0,68.0,100,30.07,5.0,Calm,Calm,-,N/A,,Mostly Cloudy,0,2012-04-30 08:42:00
3:53 AM,68.0,68.0,100,30.06,5.0,Calm,Calm,-,N/A,,Mostly Cloudy,0,2012-04-30 08:53:00
4:07 AM,69.8,68.0,94,30.07,6.0,Calm,Calm,-,N/A,,Overcast,0,2012-04-30 09:07:00
4:49 AM,66.2,66.2,100,30.07,1.8,Calm,Calm,-,N/A,,Overcast,0,2012-04-30 09:49:00
4:53 AM,66.9,66.9,100,30.06,0.8,Calm,Calm,-,N/A,,Overcast,0,2012-04-30 09:53:00
5:16 AM,66.2,66.2,100,30.07,0.2,Calm,Calm,-,N/A,Fog,Fog,0,2012-04-30 10:16:00
5:33 AM,68.0,68.0,100,30.08,0.8,Calm,Calm,-,N/A,,Mist,0,2012-04-30 10:33:00
5:40 AM,66.2,66.2,100,30.08,2.0,Calm,Calm,-,N/A,,Overcast,0,2012-04-30 10:40:00
5:53 AM,68.0,68.0,100,30.07,2.0,Calm,Calm,-,N/A,,Overcast,0,2012-04-30 10:53:00
6:15 AM,68.0,68.0,100,30.09,3.0,Calm,Calm,-,N/A,,Overcast,0,2012-04-30 11:15:00
6:29 AM,68.0,68.0,100,30.09,1.8,Calm,Calm,-,N/A,,Overcast,0,2012-04-30 11:29:00
6:39 AM,68.0,68.0,100,30.10,0.2,Calm,Calm,-,N/A,Fog,Fog,0,2012-04-30 11:39:00
6:53 AM,68.0,68.0,100,30.09,0.2,Calm,Calm,-,N/A,Fog,Fog,0,2012-04-30 11:53:00
7:53 AM,68.0,68.0,100,30.12,0.2,Calm,Calm,-,N/A,Fog,Fog,0,2012-04-30 12:53:00
8:04 AM,68.0,68.0,100,30.13,0.5,Calm,Calm,-,N/A,Fog,Fog,0,2012-04-30 13:04:00
8:19 AM,69.8,69.8,100,30.13,1.5,Calm,Calm,-,N/A,,Overcast,0,2012-04-30 13:19:00
8:27 AM,69.8,69.8,100,30.13,2.5,Calm,Calm,-,N/A,,Overcast,0,2012-04-30 13:27:00
8:36 AM,68.0,68.0,100,30.13,5.0,South,4.6,-,N/A,,Overcast,180,2012-04-30 13:36:00
8:53 AM,68.0,68.0,100,30.13,9.0,SSE,3.5,-,N/A,,Overcast,160,2012-04-30 13:53:00
9:43 AM,73.4,68.0,83,30.15,10.0,West,5.8,-,N/A,,Mostly Cloudy,260,2012-04-30 14:43:00
9:53 AM,73.0,66.9,81,30.13,10.0,Calm,Calm,-,N/A,,Scattered Clouds,0,2012-04-30 14:53:00
10:53 AM,78.1,66.9,68,30.13,10.0,South,3.5,-,N/A,,Clear,190,2012-04-30 15:53:00
11:53 AM,82.0,66.9,60,30.12,10.0,South,5.8,-,N/A,,Clear,190,2012-04-30 16:53:00
12:53 PM,84.0,66.0,55,30.10,10.0,Variable,3.5,-,N/A,,Partly Cloudy,0,2012-04-30 17:53:00
1:53 PM,84.9,64.0,49,30.09,10.0,Variable,4.6,-,N/A,,Scattered Clouds,0,2012-04-30 18:53:00
2:53 PM,86.0,63.0,46,30.07,10.0,SSE,5.8,-,N/A,,Clear,160,2012-04-30 19:53:00
3:53 PM,87.1,63.0,44,30.04,10.0,SSW,8.1,-,N/A,,Partly Cloudy,200,2012-04-30 20:53:00
4:53 PM,84.9,62.1,46,30.03,10.0,South,8.1,-,N/A,,Clear,190,2012-04-30 21:53:00
5:53 PM,84.0,61.0,46,30.03,10.0,South,8.1,-,N/A,,Clear,170,2012-04-30 22:53:00
6:53 PM,82.0,62.1,51,30.02,10.0,South,5.8,-,N/A,,Clear,180,2012-04-30 23:53:00
7:53 PM,75.0,64.9,71,30.03,10.0,Calm,Calm,-,N/A,,Clear,0,2012-05-01 00:53:00
9:53 PM,72.0,62.1,71,30.05,10.0,Calm,Calm,-,N/A,,Clear,0,2012-05-01 02:53:00
10:53 PM,70.0,63.0,78,30.05,10.0,South,3.5,-,N/A,,Clear,170,2012-05-01 03:53:00
11:53 PM,66.9,63.0,87,30.04,10.0,Calm,Calm,-,N/A,,Clear,0,2012-05-01 04:53:00